Location: Berduj
(43.0019°N, 22.3781°E)
Time: 09:57:47
(UTC+00:00)

Cosmos 1461 - Pass Details

Date: 19 October 2019
Orbit: 524 x 644 km, 65.0° (Epoch: 14 November)

Event Time Altitude Azimuth Distance (km) Brightness Sun altitude
Rises 16:25:51 0° 335° (NNW) 2,702 6.6 -8.7°
Reaches altitude 10° 16:28:19 10° 349° (NNW) 1,823 5.6 -9.2°
Maximum altitude 16:31:47 26° 47° (NE) 1,123 4.0 -9.8°
Enters shadow 16:34:36 14° 98° (E) 1,641 4.6 -10.3°
